sat.trackr.live / text

‹ back to catalog

HYDROGNSS-1

NORAD 66762 · 2025-276DA

PAYLOAD ACTIVE UNKNOWN

§ Identity

Operator
Country
ESA
Launch date
2025-11-28
Launch site
AFWTR
Launch vehicle
Mass (kg)
RCS (m²)

External: N2YO · Heavens-Above · Gunter

§ Orbital elements

Epoch: 2026-09-20T21:59:22.986528Z

Period
95.24 min
Inclination
97.4116°
Eccentricity
0.0012441
Mean motion
15.11894268 rev/d
Perigee alt
521.8 km
Apogee alt
539.0 km
Semi-major
6,908.6 km
B*
9.9172e-5
RAAN
333.6075°
Arg perigee
82.1236°
Mean anomaly
278.1406°
Rev number
4,481

§ Raw data

HYDROGNSS-11 66762U 25276DA  26263.91623827  .00001637  00000+0  99172-4 0  99942 66762  97.4116 333.6075 0012441  82.1236 278.1406 15.11894268 44818

JSON: /api/v1/satellites/66762 · /tle

For live sub-satellite position, see the globe view (requires WebGL).

§ Visibility from observer

Set your observer location to see the next 7 days of passes ≥ 10°. The values pass through the URL so the page stays shareable.

No JS? Fill the form by hand. The geolocation button needs JavaScript.